New York, NY

11:21 AM EST on November 21, 2019 (GMT -0500)
La Guardia

Weather History for KLGA - August, 2019

Change the Weather History Date:

Thursday, August 29, 2019

  Actual Average Record
Temperature  
Mean Temperature 77 °F 74 °F  
Max Temperature 84 °F 82 °F 100 °F (1953)
Min Temperature 69 °F 67 °F 51 °F (1982)
Degree Days  
Heating Degree Days 0 0  
Month to date heating degree days 0 0  
Since 1 June heating degree days 4 16  
Since 1 July heating degree days 0 0  
Cooling Degree Days 12 9  
Month to date cooling degree days 377 332  
Year to date cooling degree days 1202 1014  
Since 1 June cooling degree days 1140 948  
Growing Degree Days 26 (Base 50)    
Moisture  
Dew Point 56 °F    
Average Humidity 58    
Maximum Humidity 84    
Minimum Humidity 31    
Precipitation  
Precipitation 0.00 in 0.11 in 2.57 in (2002)
Month to date precipitation 3.14 3.90  
Year to date precipitation 35.84 30.03  
Snow  
Snow 0.00 in 0.00 in - ()
Month to date snowfall 0.0 0.0  
Since 1 July snowfall 0.0 0.0  
Snow Depth 0.00 in    
Sea Level Pressure  
Sea Level Pressure 29.88 in    
Wind  
Wind Speed 11 mph (NW)    
Max Wind Speed 22 mph    
Max Gust Speed 28 mph    
Visibility 10 miles    
Events      
T = Trace of Precipitation, MM = Missing Value Source: NWS Daily Summary

Daily Weather History Graph

Daily Weather History Graph

Search for Another Location

Airport or City:

Astronomy

Aug. 29, 2019 Rise Set
Actual Time 6:19 AM EDT 7:32 PM EDT
Civil Twilight 5:50 AM EDT 8:01 PM EDT
Nautical Twilight 5:16 AM EDT 8:35 PM EDT
Astronomical Twilight 4:41 AM EDT 9:10 PM EDT
Moon 5:00 AM EDT (8/29) 7:28 PM EDT (8/29)
Length of Visible Light 14h 10m
Length of Day
13h 13m
Waning Crescent, 1% of the Moon is Illuminated
Aug 29
Waning Crescent
Aug 30
New
Sep 5
First Quarter
Sep 14
Full
Sep 21
Last Quarter

Hourly Weather History & Observations

Time (EDT) Temp. Heat Index Dew Point Humidity Pressure Visibility Wind Dir Wind Speed Gust Speed Precip Events Conditions
12:51 AM 73.0 °F - 66.9 °F 81% 29.82 in 10.0 mi NW 12.7 mph - N/A   Mostly Cloudy
1:51 AM 71.1 °F - 63.0 °F 75% 29.80 in 10.0 mi NW 16.1 mph - N/A   Mostly Cloudy
2:51 AM 70.0 °F - 64.0 °F 81% 29.82 in 10.0 mi NNW 9.2 mph - N/A   Mostly Cloudy
3:51 AM 70.0 °F - 63.0 °F 78% 29.83 in 10.0 mi NNW 9.2 mph - N/A   Mostly Cloudy
4:51 AM 69.1 °F - 63.0 °F 81% 29.82 in 10.0 mi NW 10.4 mph - N/A   Scattered Clouds
5:51 AM 69.1 °F - 61.0 °F 75% 29.83 in 10.0 mi NW 9.2 mph - N/A   Scattered Clouds
6:51 AM 70.0 °F - 57.0 °F 63% 29.85 in 10.0 mi NW 10.4 mph - N/A   Partly Cloudy
7:51 AM 71.1 °F - 55.9 °F 59% 29.85 in 10.0 mi North 8.1 mph - N/A   Partly Cloudy
8:51 AM 72.0 °F - 57.0 °F 59% 29.86 in 10.0 mi NW 12.7 mph - N/A   Partly Cloudy
9:51 AM 75.0 °F - 57.0 °F 53% 29.88 in 10.0 mi NW 12.7 mph - N/A   Partly Cloudy
10:51 AM 77.0 °F - 55.9 °F 48% 29.90 in 10.0 mi North 9.2 mph - N/A   Partly Cloudy
11:51 AM 78.1 °F - 55.0 °F 45% 29.89 in 10.0 mi North 10.4 mph - N/A   Partly Cloudy
12:51 PM 81.0 °F 80.7 °F 55.0 °F 41% 29.88 in 10.0 mi NW 13.8 mph 18.4 mph N/A   Partly Cloudy
1:51 PM 82.0 °F 81.2 °F 53.1 °F 37% 29.88 in 10.0 mi NW 18.4 mph 21.9 mph N/A   Partly Cloudy
2:51 PM 82.0 °F 81.2 °F 53.1 °F 37% 29.87 in 10.0 mi NNW 13.8 mph - N/A   Scattered Clouds
3:51 PM 82.9 °F - 50.0 °F 32% 29.87 in 10.0 mi West 15.0 mph 23.0 mph N/A   Scattered Clouds
4:51 PM 82.9 °F - 48.9 °F 31% 29.87 in 10.0 mi West 16.1 mph 23.0 mph N/A   Partly Cloudy
5:51 PM 80.1 °F - 51.1 °F 36% 29.88 in 10.0 mi NW 16.1 mph - N/A   Partly Cloudy
6:51 PM 79.0 °F - 51.1 °F 38% 29.90 in 10.0 mi NW 18.4 mph - N/A   Partly Cloudy
7:51 PM 78.1 °F - 51.1 °F 39% 29.93 in 10.0 mi NNW 10.4 mph - N/A   Partly Cloudy
8:51 PM 77.0 °F - 53.1 °F 43% 29.96 in 10.0 mi NNW 6.9 mph - N/A   Partly Cloudy
9:51 PM 75.9 °F - 55.9 °F 50% 29.98 in 10.0 mi NW 9.2 mph - N/A   Partly Cloudy
10:51 PM 75.9 °F - 55.0 °F 48% 29.99 in 10.0 mi NW 8.1 mph - N/A   Clear
11:51 PM 75.0 °F - 52.0 °F 44% 29.99 in 10.0 mi West 5.8 mph - N/A   Clear